Regional Weather Roundup
Issued by NWS Charleston, SC

Current Version | Previous Version | Graphics & Text | Print | Product List | Glossary On
Versions: 1 2 3 4 5 6 7 8 9 10 11 12 13 14 15 16 17 18 19 20 21 22 23 24 25 26 27 28 29 30 31 32 33 34 35 36 37 38 39 40 41 42 43 44 45 46 47 48 49 50
000 ASUS42 KCHS 200425 RWRCHS REGIONAL WEATHER ROUNDUP NATIONAL WEATHER SERVICE CHARLESTON SC 1200 AM EDT SAT SEP 20 2014 NOTE: "FAIR" INDICATES FEW OR NO CLOUDS BELOW 12,000 FEET WITH NO SIGNIFICANT WEATHER AND/OR OBSTRUCTIONS TO VISIBILITY. NOT ALL STATIONS ARE QUALITY CONTROLLED BY THE NATIONAL WEATHER SERVICE. USE DATA WITH CAUTION...ESPECIALLY DEWPOINT OBSERVATIONS. SCZ027-030-031-034>040-042>050-200500- ...SOUTH CAROLINA... CITY SKY/WX TMP DP RH WIND PRES REMARKS N CHARLESTON CLOUDY 72 68 87 NE7 30.10F WATERFRONT PRK N/A 73 N/A N/A NE12G20 N/A FORT JOHNSON NOT AVBL MOUNT PLEASANT LGT RAIN 72 70 94 NE6 30.10S JOHNS ISLAND LGT RAIN 70 70 100 CALM 30.10R PINOPOLIS N/A 72 68 88 E9 30.06R MONCKS CORNER N/A 70 70 100 NE5 30.12S SUMMERVILLE FAIR 70 70 100 NE5 30.13R BEAUFORT MCAS CLOUDY 72 68 87 W7 30.09F BEAUFORT ARPT DRIZZLE 72 72 100 NE8 30.08F HILTON HEAD IS CLOUDY 73 72 94 N9 30.09R GEORGETOWN NOT AVBL WALTERBORO MOCLDY 70 N/A N/A NE7 30.12R ORANGEBURG PTCLDY 71 66 84 NE7 30.13F BARNWELL FAIR 70 66 88 NE7 30.14R AIKEN FAIR 68 68 100 NE7 30.18S MANNING FAIR 70 N/A N/A N5 30.13F KINGSTREE NOT AVBL COLUMBIA CLEAR 72 64 76 NE6 30.15S SUMTER CLEAR 67 62 86 NE7 30.15S FLORENCE CLEAR 69 62 78 NE8 30.17R MYRTLE BEACH CLOUDY 73 64 73 NE14G21 30.13F N MYRTLE BEACH MOCLDY 72 64 76 NE13 30.14S $$ GAZ063-065-086>088-099>101-113>116-118-119-134-136>141-150-200500- ...GEORGIA... CITY SKY/WX TMP DP RH WIND PRES REMARKS SAVANNAH ARPT MOCLDY 71 67 87 N8 30.07F HUNTER AAF CLOUDY 72 70 94 NE7 30.05S FORT STEWART MOCLDY 72 68 89 NE6 30.05F STATESBORO NOT AVBL SYLVANIA PTCLDY 71 69 95 N3 30.11S CLAXTON FAIR 72 72 100 NE3 30.08S THOMSON CLEAR 69 69 100 NE3 30.19S AUGUSTA-BUSH CLEAR 67 65 93 CALM 30.13R AUGUSTA-DANIEL CLEAR 71 66 84 NE12 30.15R SWAINSBORO FAIR 70 70 100 NE5 30.11S VIDALIA CLEAR 70 68 94 NE7 30.08F ALMA CLEAR 71 68 90 NE3 30.05S WAYCROSS PTCLDY 74 73 96 NE6 30.04F JESUP FAIR 72 70 94 NE5 30.05F BRUNSWICK CLOUDY 72 70 94 CALM 30.03F SAINT SIMONS CLOUDY 73 71 93 N7 30.02F $$ SCZ027-028-034-036>038-045-046-048>050-GAZ119-141-200500- ...LAKE AND SUPPLEMENTAL COASTAL OBSERVATIONS... STATION/POSITION TIME TEMP WIND PRES WAVE SWELL AIR SEA DIR/SP/G HT/PER HT/PER/DIR (UTC) (F) (DEG/KT/KT) (MB) (FT/S) (FT/S/D) UPR LAKE MARION NOT AVBL WINYAH BAY 0400 75 110/ 16 1020.0S LAKE MURRAY 0400 71 50/ 3/ 7 1021.0S ACE BASIN NERRS 0400 70 30/ 3 1019.0S FORT PULASKI 0400 1017.9F SAPELO ISLAND 0400 78 60/ 7 1017.0S $$ ANZ835-935-AMZ111-154-330-350-352-354-374-450-454-472-200500- ...C-MAN AND BUOY OBSERVATIONS... STATION/POSITION TIME TEMP WIND PRES WAVE SWELL AIR SEA DIR/SP/G HT/PER HT/PER/DIR (UTC) (F) (DEG/KT/KT) (MB) (FT/S) (FT/S/D) FOLLY BEACH CMAN 0400 75 80/ 19/ 23 1019.4R BUOY 41004 0400 77 82 60/ 25/ 31 1017.4F 7/ 6 BUOY 41008 0400 80 84 80/ 17/ 21 1016.4F 5/ 6 2/ 40/ 8 5E ST. MARYS GA 0400 84 N/A 4/ 4 FRYING PAN BUOY NOT AVBL BUOY 41025 0400 76 60/ 17/ 21 1021.5F 6/ 7 2/ 50/ 9 CAPE LOOKOUT NC 0400 75 40/ 24/ 27 1021.5F BUOY 41002 0335 79 82 70/ 21/ 23 1018.6R 8/ 8 2/ 70/11 BUOY 41010 0400 82 85 80/ 14/ 16 1013.9F 4/ 5 2/ 40/ 9 BUOY 41012 NOT AVBL ST AUGUSTINE FL 0400 77 30/ 8/ 9 1016.7R CAPERS NEARSHORE 0300 74 60/ 19/ 25 N/A FRIPP NEARSHORE NOT AVBL $$

USA.gov is the U.S. government's official web portal to all federal, state and local government web resources and services.